[[{"header":{"parameterUnit":"m.s-1","parameterCategory":1,"la1":30.2991,"la2":30.254,"lo1":-89.0895,"lo2":-89.0444,"dy":0.0017,"dx":0.0017,"nx":28,"ny":28,"refTime":"2024-06-27T21:00:00:Z","depth":0,"parameterNumber":2,"parameterNumberName":"U-component_of_WINDS"},"data":[0,0,0,0,0,0,0,0,0,0,0,0,0,0,0,0,0,0,0,0,0,0,0,0,0,0,0,0,0,0,0,0,0,0,0,0,0,0,0,0,0,0,0,0,0,0,0,0,0,0,0,0,0,0,0,0,0,0,2.6465,2.6467,0,2.6677,2.668,2.6682,2.6754,2.6753,2.6753,2.6752,2.6968,2.6975,2.6981,0,0,0,0,0,0,0,0,0,0,0,0,0,2.6124,2.6129,2.6465,2.6467,2.647,2.6677,2.668,2.6683,2.6754,2.6753,2.6752,2.6751,2.6966,2.6974,2.6982,0,0,0,0,0,0,0,0,0,0,0,0,0,2.6297,2.6131,2.6464,2.6531,2.6539,2.6676,2.668,2.6684,2.6755,2.6753,2.6752,2.6751,2.6964,2.6973,2.6983,2.7069,0,0,2.7013,2.7017,0,0,0,0,0,0,0,0,2.6287,2.631,2.6518,2.6526,2.6536,2.6688,2.6639,2.6813,2.6755,2.6673,2.6752,2.675,2.6876,2.6893,2.6936,2.7079,2.7089,2.7014,2.702,2.7024,2.7027,0,0,0,0,0,0,0,2.6275,2.6301,2.6549,2.6521,2.6532,2.6551,2.6574,2.6672,2.6779,2.668,2.6686,2.671,2.688,2.6926,2.6941,2.7092,2.7013,2.7022,2.7028,2.7032,2.7321,2.7323,0,0,0,0,0,0,2.6252,2.629,2.6542,2.6555,2.6406,2.6558,2.6584,2.664,2.6778,2.6798,2.6711,2.6712,2.691,2.693,2.6949,2.7061,2.7024,2.7033,2.7039,2.7319,2.7321,2.7323,0,0,0,0,0,0,2.6244,2.6274,2.6534,2.6425,2.6459,2.6565,2.6628,2.6645,2.6691,2.6801,2.6821,2.6737,2.691,2.6935,2.704,2.707,2.7038,2.7046,2.7317,2.732,2.7322,2.7284,0,0,0,0,0,0,2.6234,2.627,2.6303,2.6425,2.6465,2.662,2.663,2.665,2.6708,2.6712,2.6832,2.685,2.691,2.7025,2.7049,2.7082,2.7054,2.7315,2.7318,2.7322,2.7283,2.7285,2.7287,0,0,0,0,0,2.6222,2.6283,2.6305,2.6335,2.6508,2.6621,2.6644,2.6712,2.671,2.6744,2.6816,2.6846,2.7063,2.7035,2.7063,2.71,2.7313,2.7317,2.7321,2.7282,2.7285,2.7287,0,0,0,0,0,0,2.6161,2.63,2.6325,2.6428,2.6512,2.6633,2.6678,2.6712,2.6799,2.6799,2.6881,2.6907,2.7006,2.7064,2.703,2.7193,2.719,2.72,2.715,2.7154,2.7156,2.7139,2.7062,0,0,0,0,0,2.616,2.624,2.6357,2.6437,2.6478,2.6571,2.6623,2.6669,2.6759,2.6795,2.6874,2.6961,2.7049,2.7105,2.7192,2.7293,2.7321,2.7333,2.7334,2.7335,2.7342,2.7403,2.741,2.7336,2.7336,2.7336,0,0,2.6158,2.6244,2.6289,2.6427,2.6497,2.6579,2.66,2.6685,2.6747,2.6808,2.6912,2.6973,2.7076,2.718,2.7229,2.7231,2.737,2.734,2.734,2.7347,2.7408,2.7414,2.742,2.7339,2.7339,2.7338,0,0,2.6195,2.6268,2.6343,2.6415,2.6522,2.6585,2.6603,2.672,2.6763,2.6869,2.6918,2.6993,2.7142,2.7214,2.727,2.734,2.7371,2.7366,2.7375,2.7433,2.7439,2.7444,2.747,2.7478,2.7373,2.7373,2.7373,0,2.6178,2.6303,2.6377,2.6461,2.6521,2.6582,2.666,2.6726,2.6855,2.6896,2.6897,2.7088,2.7161,2.7283,2.7301,2.7344,2.7368,2.7352,2.7432,2.7438,2.7444,2.747,2.7479,2.7372,2.7372,2.7372,2.7372,0,2.6278,2.6365,2.6413,2.6538,2.6604,2.6684,2.6771,2.683,2.6871,2.6934,2.7043,2.7133,2.7241,2.7274,2.7314,2.7403,2.7401,2.7416,2.7414,2.7449,2.7474,2.7484,2.737,2.737,2.7371,2.7371,0,0,2.628,2.6449,2.6465,2.6524,2.665,2.6718,2.6802,2.6909,2.6957,2.7047,2.712,2.7247,2.7263,2.7326,2.7376,2.7427,2.7479,2.7436,2.744,2.7441,2.7584,2.7571,2.7581,2.7501,2.7503,2.7505,2.7575,0,2.6334,2.6486,2.6557,2.6679,2.6761,2.6822,2.6896,2.6982,2.7044,2.7123,2.7192,2.7281,2.7294,2.7333,2.7387,2.7461,2.7508,2.7457,2.757,2.7573,2.7541,2.7595,2.7581,2.7643,2.7586,2.7588,2.7589,0,2.6416,2.6506,2.6636,2.6755,2.6792,2.6857,2.6962,2.7037,2.7136,2.7178,2.7251,2.73,2.7393,2.7387,2.7516,2.748,2.7531,2.7575,2.7579,2.7591,2.7582,2.7608,2.7664,2.7673,2.7605,2.7604,2.7603,0,2.6404,2.6559,2.6658,2.6706,2.6847,2.6892,2.6953,2.7051,2.7112,2.7204,2.7244,2.7346,2.7401,2.7479,2.7555,2.7543,2.7678,2.7677,2.7715,2.7713,2.7739,2.7736,2.7803,2.7773,2.7773,2.7773,2.7773,0,2.6456,2.6533,2.6655,2.6715,2.6804,2.6887,2.6973,2.7038,2.7126,2.7201,2.7262,2.7331,2.7427,2.7509,2.7569,2.7668,2.7693,2.7729,2.7744,2.7724,2.7719,2.7757,2.7754,2.7775,2.7775,2.7774,2.7774,0,2.6457,2.6541,2.6653,2.6779,2.6813,2.6873,2.6981,2.7043,2.7109,2.7204,2.7231,2.7335,2.7436,2.752,2.7651,2.7691,2.7794,2.7812,2.776,2.7768,2.7801,2.7796,2.7895,2.7912,2.787,2.787,2.787,0,2.6484,2.6545,2.6679,2.6734,2.6794,2.6882,2.6945,2.703,2.7093,2.7213,2.7261,2.7366,2.7454,2.7611,2.7699,2.78,2.7821,2.7849,2.7836,2.7814,2.7821,2.7816,2.7824,2.7848,2.7848,2.7848,2.7848,0,2.6523,2.6563,2.6651,2.6755,2.6829,2.6915,2.7003,2.7044,2.7146,2.7214,2.7318,2.7387,2.7522,2.7626,2.7738,2.7801,2.7842,2.7852,2.7867,2.7845,2.7813,2.7831,2.7762,2.7849,2.7849,2.7849,2.7849,2.7849,2.6538,2.6596,2.67,2.6798,2.6873,2.6954,2.7019,2.7096,2.7184,2.7301,2.7347,2.7453,2.7555,2.7709,2.7774,2.7859,2.7864,2.7884,2.7889,2.7893,2.789,2.78,2.788,2.788,2.788,2.788,2.788,0,2.658,2.6651,2.674,2.6862,2.6939,2.6973,2.7073,2.7135,2.7228,2.732,2.7407,2.7527,2.7629,2.7727,2.7834,2.7884,2.7905,2.7909,2.7905,2.792,2.7879,2.7856,2.789,2.789,2.789,2.789,2.789,2.789,2.6611,2.6712,2.6765,2.6905,2.6976,2.7081,2.7135,2.7211,2.7285,2.7417,2.7503,2.7567,2.7662,2.7777,2.7873,2.7899,2.7935,2.7934,2.7965,2.7924,2.7922,2.792,2.7899,2.7941,2.7941,2.7999,2.7999,2.8]},{"header":{"parameterUnit":"m.s-1","parameterCategory":1,"la1":30.2991,"la2":30.254,"lo1":-89.0895,"lo2":-89.0444,"dy":0.0017,"dx":0.0017,"nx":28,"ny":28,"refTime":"2024-06-27T21:00:00:Z","depth":0,"parameterNumber":3,"parameterNumberName":"V-component_of_WINDS"},"data":[0,0,0,0,0,0,0,0,0,0,0,0,0,0,0,0,0,0,0,0,0,0,0,0,0,0,0,0,0,0,0,0,0,0,0,0,0,0,0,0,0,0,0,0,0,0,0,0,0,0,0,0,0,0,0,0,0,0,3.3666,3.3668,0,3.3896,3.3898,3.3901,3.4031,3.4032,3.4032,3.4033,3.4265,3.4271,3.4277,0,0,0,0,0,0,0,0,0,0,0,0,0,3.3337,3.3342,3.3665,3.3668,3.3671,3.3895,3.3898,3.3902,3.4031,3.4032,3.4032,3.4033,3.4264,3.427,3.4277,0,0,0,0,0,0,0,0,0,0,0,0,0,3.3514,3.3344,3.3665,3.3763,3.3774,3.3895,3.3899,3.3902,3.4031,3.4032,3.4032,3.4033,3.4261,3.427,3.4278,3.4318,0,0,3.4305,3.4308,0,0,0,0,0,0,0,0,3.3504,3.3526,3.3746,3.3756,3.3769,3.3936,3.3868,3.4042,3.4031,3.3933,3.4033,3.4033,3.4155,3.4172,3.4214,3.4329,3.4339,3.4305,3.4311,3.4314,3.4317,0,0,0,0,0,0,0,3.3491,3.3517,3.3757,3.3749,3.3763,3.3795,3.3821,3.3902,3.4037,3.3942,3.3952,3.3978,3.4161,3.4205,3.422,3.4343,3.4305,3.4313,3.4318,3.4322,3.4504,3.4504,0,0,0,0,0,0,3.3464,3.3506,3.3749,3.3764,3.3636,3.38,3.3829,3.3881,3.4037,3.4061,3.3977,3.3983,3.419,3.421,3.4229,3.4288,3.4314,3.4323,3.4328,3.4504,3.4504,3.4504,0,0,0,0,0,0,3.3456,3.3484,3.374,3.3638,3.3673,3.3805,3.3863,3.3886,3.393,3.4063,3.4088,3.3997,3.4191,3.4217,3.4296,3.4298,3.4326,3.4334,3.4505,3.4504,3.4504,3.4405,0,0,0,0,0,0,3.3446,3.3481,3.3498,3.3637,3.3678,3.3803,3.3863,3.389,3.3945,3.3955,3.4089,3.4111,3.4194,3.4282,3.4304,3.431,3.4341,3.4505,3.4505,3.4504,3.4408,3.4401,3.4394,0,0,0,0,0,3.3434,3.346,3.3498,3.3527,3.3702,3.3803,3.3826,3.3921,3.3944,3.3962,3.4048,3.4107,3.4293,3.4289,3.4315,3.4324,3.4506,3.4505,3.4504,3.4411,3.4402,3.4394,0,0,0,0,0,0,3.3316,3.348,3.3524,3.3596,3.3684,3.3825,3.3851,3.3908,3.3992,3.3998,3.4111,3.414,3.4209,3.4274,3.4266,3.4371,3.4406,3.441,3.4327,3.4319,3.4312,3.4295,3.4348,0,0,0,0,0,3.3299,3.3368,3.3507,3.3557,3.3599,3.3717,3.3764,3.383,3.3926,3.3964,3.4056,3.4147,3.4226,3.4276,3.4356,3.4418,3.4449,3.4437,3.4429,3.4423,3.4426,3.4465,3.4461,3.4501,3.4501,3.4501,0,0,3.3263,3.3361,3.3398,3.3535,3.3612,3.3681,3.3748,3.3817,3.387,3.3975,3.4056,3.4126,3.4235,3.4305,3.4341,3.4362,3.4422,3.4422,3.4416,3.4423,3.4463,3.446,3.4456,3.45,3.45,3.4501,0,0,3.3234,3.3314,3.3366,3.3441,3.3557,3.3635,3.3647,3.3779,3.383,3.3913,3.3994,3.4057,3.4191,3.4266,3.4321,3.432,3.4378,3.4343,3.4307,3.4343,3.434,3.4338,3.4339,3.4338,3.4345,3.4345,3.4345,0,3.3175,3.3283,3.3384,3.3451,3.3509,3.3608,3.3661,3.3729,3.3864,3.3902,3.3923,3.4095,3.4174,3.4265,3.4265,3.4306,3.4323,3.4329,3.4332,3.4331,3.4331,3.4333,3.4333,3.434,3.434,3.4341,3.4341,0,3.3206,3.3279,3.3306,3.3436,3.3498,3.3556,3.3666,3.3716,3.3776,3.3851,3.3935,3.4034,3.4137,3.4163,3.4222,3.4262,3.4272,3.4311,3.4348,3.432,3.4325,3.4326,3.4333,3.4335,3.4336,3.4337,0,0,3.3109,3.3295,3.3303,3.3364,3.3499,3.3558,3.362,3.3722,3.3763,3.3853,3.3909,3.402,3.4058,3.4121,3.4188,3.422,3.4215,3.4257,3.4261,3.4247,3.4267,3.4238,3.4237,3.4253,3.4254,3.4254,3.4259,0,3.3101,3.3221,3.3314,3.3398,3.3468,3.3563,3.3618,3.3707,3.3779,3.3848,3.3927,3.4005,3.4048,3.4087,3.4123,3.4208,3.4221,3.4209,3.4307,3.431,3.4279,3.4239,3.4209,3.4208,3.4261,3.4261,3.4261,0,3.3108,3.3195,3.3287,3.3416,3.3449,3.3497,3.3598,3.3663,3.3765,3.3815,3.3885,3.3956,3.4026,3.4055,3.4155,3.4145,3.419,3.4238,3.424,3.4255,3.4285,3.4254,3.421,3.421,3.4265,3.4264,3.4264,0,3.303,3.3171,3.3245,3.3293,3.3445,3.3477,3.3541,3.3644,3.3699,3.3787,3.3825,3.3918,3.397,3.4041,3.4135,3.4148,3.4225,3.4262,3.427,3.4267,3.4283,3.4281,3.4247,3.4309,3.4309,3.4309,3.4309,0,3.3013,3.3065,3.3212,3.3258,3.3319,3.3425,3.3483,3.3556,3.3647,3.3708,3.3794,3.3849,3.397,3.4039,3.4113,3.4185,3.4207,3.425,3.4269,3.4243,3.4238,3.4276,3.4279,3.4309,3.4309,3.4309,3.4309,0,3.2937,3.3038,3.3125,3.3261,3.3297,3.3337,3.3454,3.3501,3.3578,3.3654,3.3678,3.3798,3.3884,3.3985,3.4104,3.4153,3.422,3.4247,3.4186,3.4197,3.42,3.4199,3.4191,3.4195,3.4251,3.425,3.425,0,3.292,3.2963,3.3105,3.3153,3.3215,3.329,3.3348,3.3453,3.3509,3.3629,3.3662,3.3755,3.3836,3.3969,3.4067,3.4158,3.419,3.418,3.4204,3.4177,3.4192,3.4189,3.4194,3.4174,3.4173,3.4172,3.4171,0,3.2879,3.2927,3.3007,3.3105,3.3171,3.3253,3.3338,3.3371,3.3494,3.3552,3.3643,3.3705,3.3827,3.3919,3.4022,3.4089,3.415,3.4163,3.417,3.4145,3.4108,3.413,3.417,3.4163,3.4164,3.4164,3.4165,3.4165,3.2835,3.2878,3.2985,3.3071,3.3146,3.3224,3.3276,3.336,3.3437,3.3545,3.3602,3.3692,3.3793,3.3939,3.4003,3.4074,3.4095,3.4105,3.4108,3.4109,3.4102,3.4095,3.4093,3.4093,3.4094,3.4094,3.4094,0,3.28,3.2874,3.2952,3.3069,3.3137,3.319,3.3287,3.334,3.3418,3.3507,3.3585,3.3689,3.3778,3.3883,3.3979,3.4016,3.4047,3.4038,3.4037,3.4051,3.4077,3.4062,3.4011,3.4011,3.4011,3.4011,3.4011,3.4011,3.279,3.2867,3.2927,3.3042,3.3115,3.3204,3.3255,3.3327,3.34,3.3512,3.3588,3.3655,3.3752,3.3856,3.394,3.3968,3.4,3.3983,3.402,3.4042,3.4049,3.4056,3.4043,3.3989,3.3989,3.3989,3.3989,3.3989]}]]